This is the latest recevied weather packets stored in our database for station/object S50ME-11. If no packets are shown the sender has not sent any weather packets the latest 1 day(s).
| Time | Temp. | Humidity | Pressure | Rain* | Wind** | Luminosity | Snow |
|---|---|---|---|---|---|---|---|
| 1778048155 | 20.56° C | 44% | 1011.9 hPa | - | - | - | - |
| 1778044561 | 14.44° C | 46% | 1013 hPa | - | - | - | - |
| 1778043658 | 13.33° C | 47% | 1012.2 hPa | - | - | - | - |
| 1778042761 | 12.78° C | 47% | 1012.1 hPa | - | - | - | - |
| 1778042758 | 12.78° C | 47% | 1012.1 hPa | - | - | - | - |
| 1778040959 | 12.22° C | 47% | 1011.4 hPa | - | - | - | - |
| 1778040059 | 12.22° C | 47% | 1011.4 hPa | - | - | - | - |
| 1778039158 | 11.67° C | 47% | 1011.1 hPa | - | - | - | - |
| 1778038258 | 11.67° C | 47% | 1010.4 hPa | - | - | - | - |
| 1778038255 | 11.67° C | 47% | 1010.4 hPa | - | - | - | - |
| 1778037358 | 11.67° C | 47% | 1010.3 hPa | - | - | - | - |
| 1778037355 | 11.67° C | 47% | 1010.3 hPa | - | - | - | - |
| 1778036456 | 11.67° C | 46% | 1012.2 hPa | - | - | - | - |
| 1778035556 | 11.67° C | 47% | 1012.3 hPa | - | - | - | - |
| 1778035553 | 11.67° C | 47% | 1012.3 hPa | - | - | - | - |
| 1778034656 | 11.67° C | 46% | 1012.2 hPa | - | - | - | - |
| 1778034653 | 11.67° C | 46% | 1012.2 hPa | - | - | - | - |
| 1778033755 | 11.67° C | 46% | 1011.1 hPa | - | - | - | - |
| 1778031955 | 12.22° C | 46% | 1011 hPa | - | - | - | - |
| 1778031954 | 12.22° C | 46% | 1011 hPa | - | - | - | - |
| 1778031054 | 12.22° C | 45% | 1011.1 hPa | - | - | - | - |
| 1778030156 | 12.78° C | 45% | 1010.4 hPa | - | - | - | - |
| 1778030151 | 12.78° C | 45% | 1010.4 hPa | - | - | - | - |
| 1778029256 | 12.78° C | 45% | 1010.3 hPa | - | - | - | - |
| 1778029255 | 12.78° C | 45% | 1010.3 hPa | - | - | - | - |
* Rain since midnight (hover to see other rain measurements)
** Current wind speed in m/s (hover to see current wind gust speed)